• In Belgien
  • Länderverzeichnis
  • Für 7 Tage
  • Wassertemperatur
  • Satellitenkarten
  • Wetterkarte
  • Widgets
  • user-avatar
    Anmelden

    Stündliche Wetter Skajzgiry

    Heute, 21 Juni, Donnerstag

    Zeit Temperatur Niederschläge Wind Luftdruck Luftfeuchtigkeit
    00:00 +15°C° 0 mm 2 m/S 741 mmHg 88%
    01:00 +15°C° 0 mm 2 m/S 741 mmHg 89%
    02:00 +14°C° 0 mm 3 m/S 740 mmHg 91%
    03:00 +14°C° 0 mm 3 m/S 740 mmHg 88%
    04:00 +16°C° 0 mm 3 m/S 739 mmHg 86%
    05:00 +16°C° 0 mm 3 m/S 739 mmHg 83%
    06:00 +18°C° 0 mm 3 m/S 739 mmHg 79%
    07:00 +20°C° 0 mm 4 m/S 739 mmHg 75%
    08:00 +22°C° 0 mm 4 m/S 738 mmHg 69%
    09:00 +23°C° 0,1 mm 5 m/S 737 mmHg 65%
    10:00 +25°C° 0,1 mm 5 m/S 737 mmHg 62%
    11:00 +26°C° 0,1 mm 6 m/S 736 mmHg 59%
    12:00 +26°C° 0,4 mm 6 m/S 735 mmHg 61%
    13:00 +27°C° 0,4 mm 6 m/S 735 mmHg 63%
    14:00 +27°C° 0,4 mm 6 m/S 734 mmHg 65%
    15:00 +26°C° 0,8 mm 5 m/S 733 mmHg 68%
    16:00 +26°C° 0,8 mm 5 m/S 732 mmHg 71%
    17:00 +26°C° 0,8 mm 4 m/S 732 mmHg 74%
    18:00 +23°C° 1,3 mm 5 m/S 731 mmHg 78%
    19:00 +21°C° 1,3 mm 5 m/S 731 mmHg 83%
    20:00 +20°C° 1,3 mm 5 m/S 730 mmHg 87%
    21:00 +17°C° 2,2 mm 5 m/S 731 mmHg 90%
    22:00 +15°C° 2,2 mm 5 m/S 731 mmHg 92%
    23:00 +13°C° 2,2 mm 5 m/S 731 mmHg 95%

    Morgen, 22 Juni, Freitag

    Zeit Temperatur Niederschläge Wind Luftdruck Luftfeuchtigkeit
    00:00 +12°C° 0,2 mm 5 m/S 732 mmHg 95%
    01:00 +10°C° 0,2 mm 5 m/S 732 mmHg 95%
    02:00 +9°C° 0,2 mm 5 m/S 732 mmHg 94%
    03:00 +9°C° 0 mm 5 m/S 733 mmHg 94%
    04:00 +8°C° 0 mm 5 m/S 733 mmHg 94%
    05:00 +8°C° 0 mm 5 m/S 733 mmHg 94%
    06:00 +9°C° 0 mm 5 m/S 734 mmHg 88%
    07:00 +10°C° 0 mm 6 m/S 734 mmHg 83%
    08:00 +11°C° 0 mm 6 m/S 735 mmHg 77%
    09:00 +12°C° 0 mm 7 m/S 735 mmHg 72%
    10:00 +12°C° 0 mm 7 m/S 735 mmHg 66%
    11:00 +14°C° 0 mm 7 m/S 735 mmHg 61%
    12:00 +15°C° 0,1 mm 7 m/S 735 mmHg 59%
    13:00 +15°C° 0,1 mm 7 m/S 736 mmHg 58%
    14:00 +16°C° 0,1 mm 7 m/S 736 mmHg 56%
    15:00 +16°C° 0,1 mm 6 m/S 736 mmHg 57%
    16:00 +16°C° 0,1 mm 6 m/S 736 mmHg 59%
    17:00 +15°C° 0,1 mm 5 m/S 736 mmHg 60%
    18:00 +14°C° 0,1 mm 4 m/S 736 mmHg 66%
    19:00 +13°C° 0,1 mm 3 m/S 736 mmHg 73%
    20:00 +13°C° 0,1 mm 2 m/S 737 mmHg 79%
    21:00 +12°C° 0 mm 2 m/S 737 mmHg 83%
    22:00 +10°C° 0 mm 2 m/S 737 mmHg 86%
    23:00 +9°C° 0 mm 2 m/S 737 mmHg 90%

    übermorgen, 23 Juni, Samstag

    Zeit Temperatur Niederschläge Wind Luftdruck Luftfeuchtigkeit
    00:00 +8°C° 0 mm 3 m/S 737 mmHg 91%
    01:00 +8°C° 0 mm 3 m/S 737 mmHg 92%
    02:00 +8°C° 0 mm 3 m/S 737 mmHg 93%
    03:00 +8°C° 0 mm 3 m/S 737 mmHg 93%
    04:00 +7°C° 0 mm 3 m/S 737 mmHg 93%
    05:00 +7°C° 0 mm 3 m/S 736 mmHg 93%
    06:00 +9°C° 0 mm 3 m/S 736 mmHg 86%
    07:00 +11°C° 0 mm 3 m/S 737 mmHg 80%
    08:00 +13°C° 0 mm 3 m/S 737 mmHg 73%
    09:00 +14°C° 0,3 mm 4 m/S 736 mmHg 72%
    10:00 +14°C° 0,3 mm 4 m/S 736 mmHg 71%
    11:00 +15°C° 0,3 mm 4 m/S 736 mmHg 70%
    12:00 +15°C° 0,7 mm 4 m/S 736 mmHg 72%
    13:00 +15°C° 0,7 mm 4 m/S 736 mmHg 74%
    14:00 +15°C° 0,7 mm 4 m/S 736 mmHg 76%
    15:00 +15°C° 0,7 mm 4 m/S 736 mmHg 77%
    16:00 +15°C° 0,7 mm 4 m/S 735 mmHg 78%
    17:00 +15°C° 0,7 mm 4 m/S 735 mmHg 79%
    18:00 +14°C° 0,3 mm 4 m/S 735 mmHg 82%
    19:00 +13°C° 0,3 mm 3 m/S 736 mmHg 84%
    20:00 +12°C° 0,3 mm 3 m/S 736 mmHg 87%
    21:00 +11°C° 0 mm 3 m/S 736 mmHg 89%
    22:00 +10°C° 0 mm 3 m/S 736 mmHg 90%
    23:00 +9°C° 0 mm 3 m/S 736 mmHg 92%

    24 Juni, Sonntag

    Zeit Temperatur Niederschläge Wind Luftdruck Luftfeuchtigkeit
    00:00 +8°C° 0 mm 3 m/S 736 mmHg 93%
    01:00 +8°C° 0 mm 3 m/S 736 mmHg 93%
    02:00 +7°C° 0 mm 3 m/S 736 mmHg 94%
    03:00 +7°C° 0 mm 3 m/S 736 mmHg 94%
    04:00 +7°C° 0 mm 3 m/S 736 mmHg 94%
    05:00 +7°C° 0 mm 3 m/S 736 mmHg 94%
    06:00 +9°C° 0 mm 3 m/S 737 mmHg 89%
    07:00 +10°C° 0 mm 3 m/S 737 mmHg 84%
    08:00 +12°C° 0 mm 3 m/S 737 mmHg 78%
    09:00 +13°C° 0 mm 3 m/S 737 mmHg 73%
    10:00 +14°C° 0 mm 3 m/S 737 mmHg 67%
    11:00 +16°C° 0 mm 3 m/S 738 mmHg 62%
    12:00 +17°C° 0,2 mm 3 m/S 738 mmHg 61%
    13:00 +18°C° 0,2 mm 3 m/S 738 mmHg 60%
    14:00 +18°C° 0,2 mm 3 m/S 738 mmHg 58%
    15:00 +18°C° 0,3 mm 3 m/S 738 mmHg 62%
    16:00 +17°C° 0,3 mm 4 m/S 738 mmHg 66%
    17:00 +17°C° 0,3 mm 4 m/S 738 mmHg 69%
    18:00 +16°C° 0,2 mm 3 m/S 738 mmHg 75%
    19:00 +14°C° 0,2 mm 3 m/S 739 mmHg 80%
    20:00 +14°C° 0,2 mm 2 m/S 739 mmHg 85%
    21:00 +13°C° 0 mm 2 m/S 739 mmHg 87%
    22:00 +12°C° 0 mm 1 m/S 739 mmHg 89%
    23:00 +11°C° 0 mm 1 m/S 740 mmHg 90%

    25 Juni, Montag

    Zeit Temperatur Niederschläge Wind Luftdruck Luftfeuchtigkeit
    00:00 +11°C° 0 mm 1 m/S 740 mmHg 91%
    01:00 +9°C° 0 mm 2 m/S 740 mmHg 91%
    02:00 +9°C° 0 mm 2 m/S 740 mmHg 91%
    03:00 +9°C° 0 mm 2 m/S 740 mmHg 92%
    04:00 +9°C° 0 mm 2 m/S 741 mmHg 92%
    05:00 +9°C° 0 mm 2 m/S 741 mmHg 93%
    06:00 +10°C° 0 mm 2 m/S 741 mmHg 87%
    07:00 +13°C° 0 mm 2 m/S 741 mmHg 82%
    08:00 +15°C° 0 mm 2 m/S 742 mmHg 77%
    09:00 +15°C° 0,1 mm 2 m/S 742 mmHg 73%
    10:00 +16°C° 0,1 mm 2 m/S 742 mmHg 69%
    11:00 +17°C° 0,1 mm 3 m/S 742 mmHg 65%
    12:00 +18°C° 0,2 mm 3 m/S 742 mmHg 64%
    13:00 +18°C° 0,2 mm 3 m/S 742 mmHg 63%
    14:00 +18°C° 0,2 mm 3 m/S 742 mmHg 62%
    15:00 +18°C° 0,2 mm 3 m/S 742 mmHg 62%
    16:00 +18°C° 0,2 mm 3 m/S 742 mmHg 63%
    17:00 +18°C° 0,2 mm 3 m/S 742 mmHg 63%
    18:00 +17°C° 0,1 mm 3 m/S 742 mmHg 69%
    19:00 +16°C° 0,1 mm 2 m/S 742 mmHg 74%
    20:00 +15°C° 0,1 mm 2 m/S 742 mmHg 80%
    21:00 +14°C° 0 mm 2 m/S 742 mmHg 82%
    22:00 +13°C° 0 mm 2 m/S 742 mmHg 85%
    23:00 +12°C° 0 mm 2 m/S 743 mmHg 87%

    26 Juni, Dienstag

    Zeit Temperatur Niederschläge Wind Luftdruck Luftfeuchtigkeit
    00:00 +12°C° 0 mm 1 m/S 743 mmHg 88%
    01:00 +11°C° 0 mm 1 m/S 743 mmHg 88%
    02:00 +11°C° 0 mm 1 m/S 743 mmHg 88%
    03:00 +11°C° 0 mm 1 m/S 743 mmHg 88%
    04:00 +11°C° 0 mm 1 m/S 743 mmHg 88%
    05:00 +11°C° 0 mm 1 m/S 743 mmHg 88%
    06:00 +12°C° 0 mm 1 m/S 743 mmHg 84%
    07:00 +14°C° 0 mm 2 m/S 743 mmHg 80%
    08:00 +15°C° 0 mm 2 m/S 743 mmHg 76%
    09:00 +16°C° 0,2 mm 2 m/S 743 mmHg 72%
    10:00 +17°C° 0,2 mm 2 m/S 743 mmHg 68%
    11:00 +18°C° 0,2 mm 3 m/S 743 mmHg 64%
    12:00 +18°C° 0,4 mm 2 m/S 743 mmHg 64%
    13:00 +19°C° 0,4 mm 2 m/S 743 mmHg 63%
    14:00 +19°C° 0,4 mm 2 m/S 743 mmHg 63%
    15:00 +20°C° 0,3 mm 1 m/S 743 mmHg 64%
    16:00 +20°C° 0,3 mm 1 m/S 743 mmHg 65%
    17:00 +20°C° 0,3 mm 1 m/S 743 mmHg 66%
    18:00 +19°C° 0,3 mm 1 m/S 743 mmHg 71%
    19:00 +18°C° 0,3 mm 1 m/S 743 mmHg 76%
    20:00 +16°C° 0,3 mm 1 m/S 743 mmHg 82%
    21:00 +15°C° 0,1 mm 1 m/S 743 mmHg 84%
    22:00 +14°C° 0,1 mm 1 m/S 743 mmHg 87%
    23:00 +12°C° 0,1 mm 1 m/S 744 mmHg 89%
    Mehr zeigen